| time (UTC) | temp C | wind direction | speed KPH | gust KPH | rain 1hr cm | rain 24hr cm | rain mn cm | humidity % | barometer mb |
| 20260505214504 | 26 | 205 | 9.7 | 32.2 | 0.00 | 0.08 | 0.08 | 37 | 1007.6 |
| 20260505213504 | 26 | 196 | 14.5 | 32.2 | 0.00 | 0.08 | 0.08 | 37 | 1007.6 |
| 20260505213004 | 26 | 171 | 8.0 | 25.7 | 0.00 | 0.08 | 0.08 | 38 | 1007.7 |
| 20260505212504 | 26 | 167 | 11.3 | 29.0 | 0.00 | 0.08 | 0.08 | 37 | 1007.5 |
| 20260505211504 | 26 | 164 | 14.5 | 40.2 | 0.00 | 0.08 | 0.08 | 36 | 1007.6 |
| 20260505210504 | 26 | 189 | 19.3 | 32.2 | 0.00 | 0.08 | 0.08 | 36 | 1007.5 |
| 20260505210003 | 26 | 173 | 17.7 | 32.2 | 0.00 | 0.08 | 0.08 | 37 | 1007.4 |
| 20260505205503 | 26 | 195 | 16.1 | 32.2 | 0.00 | 0.08 | 0.08 | 36 | 1007.4 |
| 20260505205004 | 26 | 194 | 17.7 | 32.2 | 0.00 | 0.08 | 0.08 | 35 | 1007.5 |
| 20260505204504 | 27 | 183 | 16.1 | 32.2 | 0.00 | 0.08 | 0.08 | 35 | 1007.4 |
| 20260505204004 | 26 | 196 | 11.3 | 24.1 | 0.00 | 0.08 | 0.08 | 37 | 1007.3 |
| 20260505203004 | 27 | 195 | 14.5 | 35.4 | 0.00 | 0.08 | 0.08 | 35 | 1007.3 |
| 20260505202504 | 27 | 202 | 9.7 | 29.0 | 0.00 | 0.08 | 0.08 | 35 | 1007.5 |
| 20260505202004 | 27 | 200 | 19.3 | 32.2 | 0.00 | 0.08 | 0.08 | 34 | 1007.4 |
| 20260505201504 | 27 | 176 | 14.5 | 29.0 | 0.00 | 0.08 | 0.08 | 35 | 1007.6 |
| 20260505201004 | 27 | 199 | 9.7 | 25.7 | 0.00 | 0.08 | 0.08 | 36 | 1007.5 |
| 20260505200504 | 27 | 184 | 12.9 | 25.7 | 0.00 | 0.08 | 0.08 | 35 | 1007.5 |
| 20260505195504 | 27 | 203 | 17.7 | 32.2 | 0.00 | 0.08 | 0.08 | 36 | 1007.6 |
| 20260505195004 | 27 | 178 | 16.1 | 32.2 | 0.00 | 0.08 | 0.08 | 35 | 1007.6 |
| 20260505194504 | 27 | 173 | 9.7 | 24.1 | 0.00 | 0.08 | 0.08 | 36 | 1007.6 |
| 20260505194005 | 27 | 215 | 8.0 | 33.8 | 0.00 | 0.08 | 0.08 | 37 | 1007.7 |
| 20260505193505 | 27 | 167 | 14.5 | 32.2 | 0.00 | 0.08 | 0.08 | 37 | 1007.6 |
| 20260505193004 | 27 | 172 | 19.3 | 41.8 | 0.00 | 0.08 | 0.08 | 36 | 1007.7 |
| 20260505192004 | 27 | 174 | 19.3 | 32.2 | 0.00 | 0.08 | 0.08 | 36 | 1007.6 |
| 20260505191004 | 27 | 175 | 17.7 | 35.4 | 0.00 | 0.08 | 0.08 | 36 | 1007.7 |
| 20260505190506 | 27 | 205 | 11.3 | 25.7 | 0.00 | 0.08 | 0.08 | 35 | 1007.8 |
| 20260505190004 | 27 | 182 | 14.5 | 27.4 | 0.00 | 0.08 | 0.08 | 35 | 1007.9 |
| 20260505185504 | 27 | 184 | 16.1 | 29.0 | 0.00 | 0.08 | 0.08 | 36 | 1007.9 |
| 20260505185004 | 27 | 193 | 9.7 | 25.7 | 0.00 | 0.08 | 0.08 | 37 | 1008.0 |
| 20260505184504 | 27 | 228 | 14.5 | 29.0 | 0.00 | 0.08 | 0.08 | 36 | 1008.1 |
| 20260505184005 | 27 | 218 | 11.3 | 25.7 | 0.00 | 0.08 | 0.08 | 37 | 1008.1 |
| 20260505183504 | 27 | 209 | 14.5 | 27.4 | 0.00 | 0.08 | 0.08 | 35 | 1008.3 |
| 20260505183004 | 27 | 224 | 14.5 | 24.1 | 0.00 | 0.08 | 0.08 | 33 | 1008.3 |
| 20260505182504 | 27 | 190 | 12.9 | 25.7 | 0.00 | 0.08 | 0.08 | 34 | 1008.4 |
| 20260505181504 | 27 | 209 | 11.3 | 38.6 | 0.00 | 0.08 | 0.08 | 33 | 1008.2 |
| 20260505181004 | 27 | 252 | 9.7 | 32.2 | 0.00 | 0.08 | 0.08 | 35 | 1008.5 |
| 20260505180005 | 27 | 191 | 8.0 | 27.4 | 0.00 | 0.08 | 0.08 | 35 | 1008.7 |
| 20260505175504 | 27 | 201 | 12.9 | 38.6 | 0.00 | 0.08 | 0.08 | 36 | 1008.9 |
| 20260505175004 | 27 | 226 | 19.3 | 41.8 | 0.00 | 0.08 | 0.08 | 35 | 1008.9 |
| 20260505174504 | 27 | 214 | 14.5 | 27.4 | 0.00 | 0.08 | 0.08 | 37 | 1008.8 |
| 20260505173505 | 27 | 209 | 11.3 | 24.1 | 0.00 | 0.08 | 0.08 | 39 | 1008.9 |
| 20260505173004 | 27 | 223 | 16.1 | 29.0 | 0.00 | 0.08 | 0.08 | 38 | 1009.0 |
| 20260505172504 | 26 | 171 | 16.1 | 37.0 | 0.00 | 0.08 | 0.08 | 39 | 1009.0 |
| 20260505172004 | 26 | 204 | 16.1 | 32.2 | 0.00 | 0.08 | 0.08 | 40 | 1008.9 |
| 20260505171004 | 26 | 188 | 11.3 | 22.5 | 0.00 | 0.08 | 0.08 | 41 | 1009.1 |
| 20260505170504 | 26 | 215 | 11.3 | 22.5 | 0.00 | 0.08 | 0.08 | 42 | 1009.2 |
| 20260505170004 | 26 | 249 | 9.7 | 24.1 | 0.00 | 0.08 | 0.08 | 42 | 1009.2 |
| 20260505165504 | 26 | 227 | 9.7 | 22.5 | 0.00 | 0.08 | 0.08 | 42 | 1009.4 |
| 20260505165004 | 26 | 244 | 16.1 | 27.4 | 0.00 | 0.08 | 0.08 | 42 | 1009.5 |
| 20260505164504 | 26 | 244 | 11.3 | 25.7 | 0.00 | 0.08 | 0.08 | 42 | 1009.5 |
| 20260505163004 | 25 | 250 | 11.3 | 19.3 | 0.00 | 0.08 | 0.08 | 44 | 1009.8 |
| 20260505162504 | 25 | 241 | 8.0 | 22.5 | 0.00 | 0.08 | 0.08 | 44 | 1009.9 |
| 20260505162004 | 25 | 230 | 11.3 | 29.0 | 0.00 | 0.08 | 0.08 | 45 | 1009.9 |
| 20260505161504 | 25 | 211 | 16.1 | 27.4 | 0.00 | 0.08 | 0.08 | 43 | 1009.9 |
| 20260505161004 | 25 | 230 | 12.9 | 29.0 | 0.00 | 0.08 | 0.08 | 44 | 1010.0 |
| 20260505160504 | 25 | 238 | 8.0 | 19.3 | 0.00 | 0.08 | 0.08 | 45 | 1010.0 |
| 20260505153004 | 24 | 188 | 12.9 | 20.9 | 0.00 | 0.08 | 0.08 | 47 | 1010.3 |
| 20260505152504 | 24 | 219 | 4.8 | 14.5 | 0.00 | 0.08 | 0.08 | 48 | 1010.3 |
| 20260505151504 | 23 | 248 | 9.7 | 20.9 | 0.00 | 0.08 | 0.08 | 50 | 1010.5 |
| 20260505151004 | 23 | 227 | 8.0 | 19.3 | 0.00 | 0.08 | 0.08 | 50 | 1010.5 |
| 20260505150504 | 23 | 230 | 8.0 | 16.1 | 0.00 | 0.08 | 0.08 | 49 | 1010.5 |
| 20260505140505 | 20 | 294 | 11.3 | 19.3 | 0.00 | 0.08 | 0.08 | 57 | 1011.1 |
| 20260505125004 | 17 | 254 | 3.2 | 9.7 | 0.00 | 0.08 | 0.08 | 74 | 1011.4 |
| 20260505124504 | 16 | 205 | 4.8 | 9.7 | 0.00 | 0.08 | 0.08 | 74 | 1011.4 |
| 20260505124004 | 16 | 178 | 4.8 | 11.3 | 0.00 | 0.08 | 0.08 | 74 | 1011.4 |
| 20260505123504 | 16 | 165 | 6.4 | 12.9 | 0.00 | 0.08 | 0.08 | 74 | 1011.2 |
| 20260505123004 | 16 | 150 | 4.8 | 11.3 | 0.00 | 0.08 | 0.08 | 75 | 1011.2 |
| 20260505122004 | 16 | 170 | 4.8 | 8.0 | 0.00 | 0.08 | 0.08 | 75 | 1011.3 |
| 20260505121504 | 15 | 166 | 6.4 | 12.9 | 0.00 | 0.08 | 0.08 | 76 | 1011.3 |
| 20260505121004 | 15 | 167 | 4.8 | 14.5 | 0.00 | 0.08 | 0.08 | 79 | 1011.4 |
| 20260505120004 | 15 | 177 | 1.6 | 4.8 | 0.00 | 0.08 | 0.08 | 79 | 1011.3 |
| 20260505115507 | 15 | 210 | 4.8 | 9.7 | 0.00 | 0.08 | 0.08 | 81 | 1011.3 |
| 20260505115004 | 15 | 152 | 3.2 | 9.7 | 0.00 | 0.08 | 0.08 | 83 | 1011.1 |
| 20260505114503 | 14 | 189 | 4.8 | 9.7 | 0.00 | 0.08 | 0.08 | 85 | 1011.2 |
| 20260505114003 | 13 | 157 | 4.8 | 9.7 | 0.00 | 0.08 | 0.08 | 88 | 1010.9 |
| 20260505113504 | 13 | 162 | 1.6 | 4.8 | 0.00 | 0.08 | 0.08 | 90 | 1011.0 |
| 20260505113004 | 13 | 159 | 1.6 | 4.8 | 0.00 | 0.08 | 0.08 | 91 | 1011.0 |
| 20260505112504 | 12 | 159 | 1.6 | 4.8 | 0.00 | 0.08 | 0.08 | 91 | 1011.0 |
| 20260505112004 | 12 | 158 | 3.2 | 4.8 | 0.00 | 0.08 | 0.08 | 91 | 1011.0 |
| 20260505111504 | 12 | 211 | 0.0 | 1.6 | 0.00 | 0.08 | 0.08 | 91 | 1011.1 |
| 20260505110504 | 11 | 211 | 1.6 | 1.6 | 0.00 | 0.08 | 0.08 | 91 | 1011.1 |
| 20260505101504 | 12 | 155 | 0.0 | 1.6 | 0.00 | 0.08 | 0.08 | 87 | 1010.6 |
| 20260505101004 | 12 | 155 | 1.6 | 3.2 | 0.00 | 0.08 | 0.08 | 87 | 1010.6 |
| 20260505100504 | 12 | 155 | 3.2 | 4.8 | 0.03 | 0.08 | 0.08 | 87 | 1010.5 |
| 20260505095504 | 12 | 155 | 3.2 | 4.8 | 0.03 | 0.08 | 0.08 | 87 | 1010.4 |
| 20260505095004 | 12 | 159 | 3.2 | 9.7 | 0.05 | 0.08 | 0.08 | 87 | 1010.4 |
| 20260505094504 | 12 | 172 | 4.8 | 8.0 | 0.08 | 0.08 | 0.08 | 87 | 1010.5 |
| 20260505093504 | 12 | 147 | 6.4 | 14.5 | 0.08 | 0.08 | 0.08 | 88 | 1010.4 |
| 20260505093004 | 12 | 152 | 4.8 | 4.8 | 0.08 | 0.08 | 0.08 | 88 | 1010.6 |
| 20260505092503 | 12 | 148 | 0.0 | 4.8 | 0.08 | 0.08 | 0.08 | 87 | 1010.6 |
| 20260505092004 | 12 | 148 | 1.6 | 4.8 | 0.08 | 0.08 | 0.08 | 87 | 1010.6 |
| 20260505091504 | 12 | 152 | 4.8 | 11.3 | 0.08 | 0.08 | 0.08 | 86 | 1010.8 |
| 20260505091004 | 12 | 313 | 1.6 | 4.8 | 0.08 | 0.08 | 0.08 | 85 | 1010.8 |
| 20260505090505 | 12 | 313 | 1.6 | 3.2 | 0.05 | 0.05 | 0.05 | 84 | 1010.8 |
| 20260505090004 | 12 | 313 | 3.2 | 4.8 | 0.05 | 0.05 | 0.05 | 82 | 1010.7 |
| 20260505085504 | 12 | 314 | 1.6 | 4.8 | 0.05 | 0.05 | 0.05 | 81 | 1010.8 |
| 20260505085005 | 12 | 314 | 3.2 | 8.0 | 0.03 | 0.03 | 0.03 | 78 | 1010.9 |
| 20260505084504 | 12 | 307 | 4.8 | 11.3 | 0.00 | 0.00 | 0.00 | 75 | 1011.2 |
| 20260505084005 | 12 | 276 | 4.8 | 4.8 | 0.00 | 0.00 | 0.00 | 73 | 1011.0 |
| 20260505083505 | 13 | 244 | 4.8 | 4.8 | 0.00 | 0.00 | 0.00 | 72 | 1010.9 |
| 20260505083004 | 13 | 224 | 3.2 | 4.8 | 0.00 | 0.00 | 0.00 | 71 | 1010.8 |
| 20260505082004 | 13 | 187 | 1.6 | 3.2 | 0.00 | 0.00 | 0.00 | 70 | 1010.4 |
| 20260505081504 | 13 | 187 | 1.6 | 3.2 | 0.00 | 0.00 | 0.00 | 69 | 1010.5 |
| 20260505081004 | 13 | 187 | 1.6 | 3.2 | 0.00 | 0.00 | 0.00 | 69 | 1010.3 |
| 20260505080004 | 13 | 187 | 0.0 | 1.6 | 0.00 | 0.00 | 0.00 | 69 | 1010.2 |
| 20260505075504 | 13 | 187 | 0.0 | 3.2 | 0.00 | 0.00 | 0.00 | 68 | 1010.3 |
| 20260505075005 | 13 | 187 | 0.0 | 1.6 | 0.00 | 0.00 | 0.00 | 68 | 1010.2 |
| 20260505074504 | 13 | 187 | 0.0 | 1.6 | 0.00 | 0.00 | 0.00 | 67 | 1010.2 |
| 20260505074004 | 13 | 187 | 0.0 | 0.0 | 0.00 | 0.00 | 0.00 | 66 | 1010.2 |
| 20260505073505 | 13 | 187 | 0.0 | 1.6 | 0.00 | 0.00 | 0.00 | 66 | 1010.2 |
| 20260505073004 | 13 | 187 | 1.6 | 1.6 | 0.00 | 0.00 | 0.00 | 67 | 1010.3 |
| 20260505072504 | 13 | 187 | 0.0 | 1.6 | 0.00 | 0.00 | 0.00 | 66 | 1010.3 |
| 20260505071504 | 14 | 187 | 0.0 | 0.0 | 0.00 | 0.00 | 0.00 | 64 | 1010.2 |
| 20260505071004 | 14 | 187 | 0.0 | 0.0 | 0.00 | 0.00 | 0.00 | 64 | 1010.3 |
| 20260505065504 | 15 | 187 | 0.0 | 0.0 | 0.00 | 0.00 | 0.00 | 61 | 1010.2 |
| 20260505065004 | 15 | 187 | 0.0 | 0.0 | 0.00 | 0.00 | 0.00 | 60 | 1010.3 |
| 20260505064504 | 15 | 187 | 0.0 | 0.0 | 0.00 | 0.00 | 0.00 | 60 | 1010.2 |
| 20260505064004 | 15 | 187 | 0.0 | 1.6 | 0.00 | 0.00 | 0.00 | 60 | 1010.3 |
| 20260505063504 | 15 | 187 | 1.6 | 3.2 | 0.00 | 0.00 | 0.00 | 59 | 1010.4 |
| 20260505063004 | 15 | 187 | 1.6 | 1.6 | 0.00 | 0.00 | 0.00 | 59 | 1010.4 |
| 20260505062504 | 15 | 187 | 0.0 | 1.6 | 0.00 | 0.00 | 0.00 | 59 | 1010.4 |
| 20260505062004 | 15 | 187 | 0.0 | 3.2 | 0.00 | 0.00 | 0.00 | 59 | 1010.4 |
| 20260505061504 | 15 | 187 | 3.2 | 4.8 | 0.00 | 0.00 | 0.00 | 58 | 1010.4 |
| 20260505061004 | 15 | 187 | 1.6 | 3.2 | 0.00 | 0.00 | 0.00 | 58 | 1010.4 |
| 20260505060505 | 15 | 187 | 1.6 | 4.8 | 0.00 | 0.00 | 0.00 | 58 | 1010.4 |
| 20260505060004 | 15 | 187 | 1.6 | 3.2 | 0.00 | 0.00 | 0.00 | 57 | 1010.4 |
| 20260505054504 | 15 | 187 | 0.0 | 3.2 | 0.00 | 0.00 | 0.00 | 56 | 1010.4 |
| 20260505054004 | 16 | 187 | 0.0 | 1.6 | 0.00 | 0.00 | 0.00 | 56 | 1010.4 |
| 20260505053505 | 16 | 187 | 0.0 | 1.6 | 0.00 | 0.00 | 0.00 | 56 | 1010.4 |
| 20260505053004 | 16 | 187 | 0.0 | 0.0 | 0.00 | 0.00 | 0.00 | 55 | 1010.4 |
| 20260505052504 | 16 | 187 | 0.0 | 1.6 | 0.00 | 0.00 | 0.00 | 54 | 1010.4 |
| 20260505052004 | 16 | 187 | 1.6 | 3.2 | 0.00 | 0.00 | 0.00 | 54 | 1010.3 |
| 20260505051004 | 16 | 174 | 3.2 | 9.7 | 0.00 | 0.00 | 0.00 | 54 | 1010.4 |
| 20260505041504 | 16 | 165 | 0.0 | 1.6 | 0.00 | 0.00 | 0.00 | 53 | 1010.4 |
| 20260505040505 | 16 | 165 | 0.0 | 1.6 | 0.00 | 0.00 | 0.00 | 52 | 1010.2 |
| 20260505035504 | 16 | 165 | 0.0 | 1.6 | 0.00 | 0.00 | 0.00 | 51 | 1010.1 |
| 20260505035004 | 16 | 165 | 0.0 | 1.6 | 0.00 | 0.00 | 0.00 | 51 | 1010.1 |
| 20260505034504 | 16 | 165 | 0.0 | 3.2 | 0.00 | 0.00 | 0.00 | 51 | 1010.1 |
| 20260505034004 | 16 | 165 | 1.6 | 3.2 | 0.00 | 0.00 | 0.00 | 51 | 1010.2 |
| 20260505033504 | 16 | 165 | 1.6 | 4.8 | 0.00 | 0.00 | 0.00 | 51 | 1010.1 |
| 20260505032504 | 16 | 165 | 4.8 | 8.0 | 0.00 | 0.00 | 0.00 | 51 | 1010.2 |
| 20260505032004 | 17 | 164 | 3.2 | 8.0 | 0.00 | 0.00 | 0.00 | 50 | 1010.2 |
| 20260505031504 | 17 | 162 | 3.2 | 8.0 | 0.00 | 0.00 | 0.00 | 50 | 1010.2 |
| 20260505031004 | 17 | 162 | 1.6 | 8.0 | 0.00 | 0.00 | 0.00 | 50 | 1010.2 |
| 20260505030504 | 17 | 149 | 4.8 | 8.0 | 0.00 | 0.00 | 0.00 | 50 | 1010.3 |
| 20260505030004 | 17 | 161 | 8.0 | 9.7 | 0.00 | 0.00 | 0.00 | 49 | 1010.3 |
| 20260505025504 | 17 | 164 | 3.2 | 8.0 | 0.00 | 0.00 | 0.00 | 49 | 1010.4 |
| 20260505025004 | 17 | 179 | 3.2 | 4.8 | 0.00 | 0.00 | 0.00 | 49 | 1010.4 |
| 20260505024504 | 17 | 144 | 3.2 | 8.0 | 0.00 | 0.00 | 0.00 | 48 | 1010.4 |
| 20260505024004 | 17 | 173 | 3.2 | 8.0 | 0.00 | 0.00 | 0.00 | 48 | 1010.4 |
| 20260505023504 | 17 | 173 | 3.2 | 8.0 | 0.00 | 0.00 | 0.00 | 48 | 1010.4 |
| 20260505023004 | 17 | 188 | 3.2 | 4.8 | 0.00 | 0.00 | 0.00 | 47 | 1010.4 |
| 20260505022504 | 17 | 188 | 1.6 | 3.2 | 0.00 | 0.00 | 0.00 | 47 | 1010.4 |
| 20260505022004 | 17 | 188 | 1.6 | 9.7 | 0.00 | 0.00 | 0.00 | 47 | 1010.5 |
| 20260505021504 | 18 | 160 | 1.6 | 8.0 | 0.00 | 0.00 | 0.00 | 47 | 1010.6 |
| 20260505021004 | 18 | 163 | 3.2 | 11.3 | 0.00 | 0.00 | 0.00 | 46 | 1010.5 |
| 20260505020504 | 18 | 192 | 3.2 | 8.0 | 0.00 | 0.00 | 0.00 | 46 | 1010.6 |
| 20260505020004 | 18 | 167 | 4.8 | 11.3 | 0.00 | 0.00 | 0.00 | 46 | 1010.6 |
| 20260505015504 | 18 | 178 | 4.8 | 9.7 | 0.00 | 0.00 | 0.00 | 46 | 1010.5 |
| 20260505015004 | 17 | 169 | 4.8 | 11.3 | 0.00 | 0.00 | 0.00 | 46 | 1010.6 |
| 20260505014505 | 17 | 189 | 3.2 | 8.0 | 0.00 | 0.00 | 0.00 | 47 | 1010.5 |
| 20260505014004 | 17 | 192 | 3.2 | 9.7 | 0.00 | 0.00 | 0.00 | 46 | 1010.5 |
| 20260505013505 | 17 | 168 | 1.6 | 8.0 | 0.00 | 0.00 | 0.00 | 46 | 1010.4 |
| 20260505013005 | 18 | 168 | 1.6 | 3.2 | 0.00 | 0.00 | 0.00 | 46 | 1010.3 |
| 20260505012504 | 18 | 169 | 1.6 | 8.0 | 0.00 | 0.00 | 0.00 | 45 | 1010.2 |
| 20260505012004 | 18 | 168 | 3.2 | 8.0 | 0.00 | 0.00 | 0.00 | 45 | 1010.2 |
| 20260505011503 | 18 | 157 | 1.6 | 11.3 | 0.00 | 0.00 | 0.00 | 45 | 1010.2 |
| 20260505011004 | 18 | 175 | 3.2 | 4.8 | 0.00 | 0.00 | 0.00 | 44 | 1010.1 |
| 20260505005504 | 18 | 161 | 4.8 | 9.7 | 0.00 | 0.00 | 0.00 | 44 | 1010.1 |
| 20260505005004 | 18 | 162 | 3.2 | 8.0 | 0.00 | 0.00 | 0.00 | 43 | 1010.0 |
| 20260505004504 | 18 | 168 | 3.2 | 11.3 | 0.00 | 0.00 | 0.00 | 43 | 1009.9 |
| 20260505004004 | 19 | 164 | 4.8 | 11.3 | 0.00 | 0.00 | 0.00 | 43 | 1009.8 |
| 20260505003505 | 19 | 160 | 3.2 | 9.7 | 0.00 | 0.00 | 0.00 | 42 | 1009.8 |
| 20260505002504 | 19 | 201 | 4.8 | 12.9 | 0.00 | 0.00 | 0.00 | 42 | 1009.8 |
| 20260505002004 | 19 | 173 | 8.0 | 14.5 | 0.00 | 0.00 | 0.00 | 42 | 1009.8 |
| 20260505001504 | 19 | 168 | 4.8 | 19.3 | 0.00 | 0.00 | 0.00 | 42 | 1009.7 |
| 20260505001003 | 20 | 166 | 8.0 | 19.3 | 0.00 | 0.00 | 0.00 | 41 | 1009.6 |
| 20260505000504 | 20 | 167 | 6.4 | 14.5 | 0.00 | 0.00 | 0.00 | 41 | 1009.6 |
| 20260505000003 | 20 | 153 | 6.4 | 16.1 | 0.00 | 0.00 | 0.00 | 41 | 1009.5 |
| 20260504235504 | 20 | 156 | 4.8 | 14.5 | 0.00 | 0.00 | 0.00 | 41 | 1009.5 |
| 20260504234504 | 20 | 164 | 9.7 | 19.3 | 0.00 | 0.00 | 0.00 | 41 | 1009.5 |
| 20260504234004 | 20 | 170 | 9.7 | 19.3 | 0.00 | 0.00 | 0.00 | 41 | 1009.4 |
| 20260504233505 | 20 | 159 | 11.3 | 22.5 | 0.00 | 0.00 | 0.00 | 41 | 1009.4 |
| 20260504233004 | 20 | 165 | 12.9 | 29.0 | 0.00 | 0.00 | 0.00 | 40 | 1009.3 |
| 20260504232504 | 20 | 168 | 11.3 | 27.4 | 0.00 | 0.00 | 0.00 | 40 | 1009.3 |
| 20260504232004 | 20 | 179 | 9.7 | 20.9 | 0.00 | 0.00 | 0.00 | 40 | 1009.2 |
| 20260504231504 | 21 | 174 | 12.9 | 24.1 | 0.00 | 0.00 | 0.00 | 40 | 1009.1 |
| 20260504231003 | 21 | 163 | 9.7 | 22.5 | 0.00 | 0.00 | 0.00 | 40 | 1009.0 |
| 20260504230503 | 21 | 164 | 9.7 | 27.4 | 0.00 | 0.00 | 0.00 | 39 | 1009.0 |
| 20260504230004 | 21 | 162 | 14.5 | 24.1 | 0.00 | 0.00 | 0.00 | 39 | 1009.0 |
| 20260504225505 | 21 | 162 | 12.9 | 32.2 | 0.00 | 0.00 | 0.00 | 39 | 1008.9 |
| 20260504225004 | 21 | 199 | 9.7 | 20.9 | 0.00 | 0.00 | 0.00 | 38 | 1008.9 |
| 20260504224504 | 21 | 156 | 14.5 | 27.4 | 0.00 | 0.00 | 0.00 | 38 | 1008.9 |
| 20260504224004 | 22 | 164 | 12.9 | 24.1 | 0.00 | 0.00 | 0.00 | 37 | 1008.9 |
| 20260504223504 | 22 | 173 | 8.0 | 24.1 | 0.00 | 0.00 | 0.00 | 35 | 1008.9 |
| 20260504222504 | 22 | 211 | 4.8 | 20.9 | 0.00 | 0.00 | 0.00 | 35 | 1008.9 |
| 20260504222004 | 22 | 195 | 6.4 | 19.3 | 0.00 | 0.00 | 0.00 | 35 | 1008.9 |
| 20260504221504 | 22 | 236 | 8.0 | 22.5 | 0.00 | 0.00 | 0.00 | 34 | 1008.9 |
| 20260504221004 | 22 | 200 | 8.0 | 25.7 | 0.00 | 0.00 | 0.00 | 34 | 1009.0 |
| 20260504220004 | 22 | 189 | 11.3 | 29.0 | 0.00 | 0.00 | 0.00 | 33 | 1009.0 |
| 20260504215504 | 22 | 254 | 11.3 | 24.1 | 0.00 | 0.00 | 0.00 | 34 | 1009.0 |